NOAA NWS Hourly Roundups by Site

Regional Weather Roundup for Omaha, NE

To Select Another Site Choose from List

Select Site:  

000
ASUS43 KOAX 160910
RWRNE

WEATHER ROUNDUP FOR NEBRASKA
NATIONAL WEATHER SERVICE OMAHA NE
400 AM CDT WED OCT 16 2019

NOTES: SATELLITE DATA IS BEING USED TO AUGMENT CLOUD COVER ABOVE
       12000 FEET.
       "FAIR" INDICATES FEW OR NO CLOUDS BELOW 12,000 FEET WITH NO
       SIGNIFICANT WEATHER AND/OR OBSTRUCTIONS TO VISIBILITY.


NEZ001>004-019>022-054>056-161000-
NEBRASKA PANHANDLE

CITY           SKY/WX    TMP DP  RH WIND       PRES   REMARKS
SCOTTSBLUFF    FAIR      32  26  78 E9        30.16F WCI  24
ALLIANCE       FAIR      28  23  81 S9        30.17F WCI  19
CHADRON        FAIR      26  23  88 NE3       30.15F
GORDON         FAIR      31  27  83 SW9       30.18S WCI  23
KIMBALL        FAIR      30  24  77 SW8       30.19F WCI  22
SIDNEY         FAIR      24  20  84 SW8       30.20F WCI  15
$$

NEZ057>060-069>072-079>082-161000-
SOUTHWEST NEBRASKA

CITY           SKY/WX    TMP DP  RH WIND       PRES   REMARKS
NORTH PLATTE   FAIR      25  21  85 N6        30.25S WCI  18
IMPERIAL       FAIR      28  19  69 SW3       30.25F
LEXINGTON      FAIR      27  26  94 NW5       30.24F WCI  22
MCCOOK         FAIR      27  23  85 SW7       30.26F WCI  19
OGALLALA       FAIR      27  24  89 W3        30.24F
$$

NEZ005>010-023>029-035>040-094-161000-
NORTH CENTRAL NEBRASKA

CITY           SKY/WX    TMP DP  RH WIND       PRES   REMARKS
VALENTINE      FAIR      25  21  85 SW6       30.21F WCI  18
AINSWORTH      FAIR      30  30  99 W5        30.22F WCI  25
BROKEN BOW     FAIR      26  23  88 CALM      30.23F
O`NEILL        CLOUDY    37  34  90 W6        30.23S WCI  32
ORD            FAIR      27  25  92 N5        30.23F WCI  22
THEDFORD       FAIR      26  25  96 CALM      30.23F
$$

NEZ041-046>049-061>064-073>077-083>087-161000-
SOUTH CENTRAL NEBRASKA

CITY           SKY/WX    TMP DP  RH WIND       PRES   REMARKS
GRAND ISLAND   FAIR      33  28  81 NW7       30.24F WCI  27
AURORA         FAIR      33  31  95 NW5       30.23F WCI  28
HASTINGS       FAIR      31  27  85 W5        30.24F WCI  26
HEBRON         FAIR      36  32  87 NW7       30.25S WCI  30
HOLDREGE       FAIR      31  28  90 CALM      30.24F
KEARNEY        FAIR      31  28  89 NW7       30.25F WCI  24
YORK           FAIR      32  32 100 NW8       30.23F WCI  25
$$

NEZ011>018-030>034-042>045-161000-
NORTHEAST NEBRASKA

CITY           SKY/WX    TMP DP  RH WIND       PRES   REMARKS
NORFOLK        FAIR      35  30  82 W7        30.21S WCI  29
ALBION         FAIR      29  28  94 CALM      30.23S
BLAIR          CLOUDY    43  35  73 N13G18    30.19R
COLUMBUS       FAIR      35  31  85 W6        30.23S WCI  30
FREMONT        CLOUDY    44  36  74 N15G22    30.21S
TEKAMAH        CLOUDY    43  34  70 N15G26    30.19F
WAYNE          CLOUDY    41  32  71 N13       30.20S
$$

NEZ050>053-065>068-078-088>093-161000-
SOUTHEAST NEBRASKA

CITY           SKY/WX    TMP DP  RH WIND       PRES   REMARKS
LINCOLN        CLOUDY    44  35  70 N9        30.23S
OMAHA EPPLEY   CLOUDY    44  36  73 N16G24    30.19S
BEATRICE       CLOUDY    45  36  71 N14G21    30.22S
FALLS CITY     CLOUDY    45  37  73 N8        30.19R
NEBRASKA CITY  CLOUDY    45  35  69 N13       30.19F
PLATTSMOUTH    CLOUDY    44  38  78 NW12      30.19S
$$

NEZ044-045-051>053-067-161000-
OMAHA AREA

CITY           SKY/WX    TMP DP  RH WIND       PRES   REMARKS
OMAHA EPPLEY   CLOUDY    44  36  73 N16G24    30.19S
BLAIR          CLOUDY    43  35  73 N13G18    30.19R
FREMONT        CLOUDY    44  36  74 N15G22    30.21S
MILLARD        CLOUDY    46  37  70 NW8       30.21R
OFFUTT AFB     CLOUDY    45  36  70 N10       30.23R
PLATTSMOUTH    CLOUDY    44  38  78 NW12      30.19S
WAHOO          CLOUDY    43  36  75 NW8       30.21F
$$


 

View Past Reports for Omaha, NE.

Products Courtesy of NOAA-NWS
NWS Information Parsing Script by Ken True at Saratoga Weather - Script by SE Lincoln Weather.